Location: Cheyres
(46.8153°N, 6.7877°E)
Time: 14:09:40
(UTC+00:00)

SPOT 3 Rocket - Pass Details

Date: 11 May 2021
Orbit: 779 x 794 km, 98.7° (Epoch: 19 June)

Event Time Altitude Azimuth Distance (km) Brightness Sun altitude
Exits shadow 19:56:53 - 157° (SSE) 2,457 5.6 -9.4°
Reaches altitude 10° 19:57:12 10° 156° (SSE) 2,333 5.5 -9.5°
Maximum altitude 20:02:20 74° 73° (ENE) 817 3.6 -10.2°
Drops below altitude 10° 20:07:29 10° 349° (N) 2,344 6.9 -10.8°
Sets 20:09:49 0° 348° (NNW) 3,276 7.7 -11.1°
